STARLINK-1683 (46578 NORAD) Tracking and Keplerian Element Data

This shows tracking and keplerian element data for the satellite.

Feedback or suggestion? Click here.




ElementValue
Catalog46578
NameSTARLINK-1683
Epoch Orbit428
Epoch Day304.50002315
Epoch Year2020
RAAN323.9645
Inclination53.0002
Eccentricity0.0001072
Argument of Perigee57.1378
Mean Anonmoly23.7105
Mean Motion15.62728424
Decay Rate0.00039242
L11 46578U 20070AY 20304.50002315 .00039242 00000-0 43274-3 0 9997
L22 46578 53.0002 323.9645 0001072 57.1378 23.7105 15.62728424 4288

Live tracking and technical data element details for STARLINK-1683 (NORAD 46578). STARLINK-1683 can be tracked NOW for your location showing map with azimuth and elevation plus other details from your city location.

Track the satellite on the map from your city or location and see movement details for azimuth, elevation, latitude, longitude, range, height, and movement on the map or in text.







IsCatalogInMostPopularTable: catalog: 46578, numindb: 3
Update: records affected: 1



GetName: 46578 STARLINK-1683

Hit Count: updated at: Sat, 31 Oct 2020 06:35:15 GMT